Location: Berg
(48.5667°N, 13.9833°E)
Time: 02:06:15
(UTC+00:00)

ATLAS CENTAUR R/B - Pass Details

Date: 09 April 2020
Orbit: 471 x 675 km, 64.7° (Epoch: 01 June)

Event Time Altitude Azimuth Distance (km) Brightness Sun altitude
Rises 18:37:40 0° 325° (NW) 2,731 6.0 -8.8°
Reaches altitude 10° 18:41:02 10° 354° (N) 1,784 4.3 -9.3°
Maximum altitude 18:42:56 13° 23° (NNE) 1,575 3.7 -9.6°
Drops below altitude 10° 18:44:47 10° 51° (NE) 1,730 3.6 -9.9°
Enters shadow 18:46:16 - 68° (ENE) 2,065 3.8 -10.1°
